Regional Weather Roundup
Issued by NWS Charleston, WV

Home | Current Version | Previous Version | Graphics & Text | Print | Product List | Glossary On
Versions: 1 2 3 4 5 6 7 8 9 10 11 12 13 14 15 16 17 18 19 20 21 22 23 24 25 26 27 28 29 30 31 32 33 34 35 36 37 38 39 40 41 42 43 44 45 46 47 48 49 50
448
ASUS41 KRLX 232310
RWRRLX
West Virginia Regional Weather Roundup
National Weather Service Charleston WV
700 PM EDT MON APR 23 2018

Note: "fair" indicates few or no clouds below 12,000 feet with no
significant weather and/or obstructions to visibility.

WVZ003-240000-
Northern Panhandle of West Virginia

CITY           SKY/WX    TMP DP  RH WIND       PRES   REMARKS
WHEELING       FAIR      66  33  29 S9        30.18S
$$

WVZ009-240000-
Northwest West Virginia

CITY           SKY/WX    TMP DP  RH WIND       PRES   REMARKS
PARKERSBURG    LGT RAIN  58  42  55 SE7       30.23F
$$

WVZ006-240000-
Western West Virginia

CITY           SKY/WX    TMP DP  RH WIND       PRES   REMARKS
HUNTINGTON     CLOUDY    55  49  80 E10       30.11F
$$

WVZ015-240000-
West Central West Virginia

CITY           SKY/WX    TMP DP  RH WIND       PRES   REMARKS
CHARLESTON     CLOUDY    54  50  86 E9        30.17F
$$

WVZ022-031-240000-
North Central West Virginia

CITY           SKY/WX    TMP DP  RH WIND       PRES   REMARKS
CLARKSBURG     CLOUDY    65  36  34 SE13G24   30.21S
MORGANTOWN     FAIR      64  38  38 SE14G20   30.23S
$$

WVZ025-035-042-045-240000-
Southern West Virginia

CITY           SKY/WX    TMP DP  RH WIND       PRES   REMARKS
BECKLEY        LGT RAIN  49  45  86 SE16G30   30.18F
LOGAN          PTSUNNY   55  46  71 SE13G25   30.11F
BLUEFIELD      LGT RAIN  48  43  82 E13G24    30.18F
LEWISBURG      RAIN      50  46  84 E3        30.26S
$$

WVZ047-240000-
Northern Mountains of West Virginia

CITY           SKY/WX    TMP DP  RH WIND       PRES   REMARKS
ELKINS         CLOUDY    59  38  45 SE8       30.24F
$$

WVZ052-240000-
Eastern Panhandle of West Virginia

CITY           SKY/WX    TMP DP  RH WIND       PRES   REMARKS
MARTINSBURG    FAIR      64  43  46 SE9G17    30.30S
PETERSBURG     PTSUNNY   62  43  49 SE9       30.27S
$$




USA.gov is the U.S. government's official web portal to all federal, state and local government web resources and services.